timestamp,wind_dir_avg,wind_spd_max_dir,wind_spd_avg,wind_spd_gust,battery_voltage,lat,long
2018-11-09 00:00:00+00:00,290.0,288.0,12.08,14.34,,47.59359,-54.27349
2018-11-09 00:10:00+00:00,287.0,300.0,11.04,14.06,,47.59359,-54.27349
2018-11-09 00:20:00+00:00,292.0,291.0,12.11,14.97,,47.59359,-54.27349
2018-11-09 00:30:00+00:00,292.0,289.0,11.33,12.88,,47.59359,-54.27349
2018-11-09 00:40:00+00:00,294.0,289.0,12.87,15.34,,47.59359,-54.27349
2018-11-09 00:50:00+00:00,302.0,301.0,12.02,14.52,,47.59359,-54.27349
2018-11-09 01:00:00+00:00,298.0,302.0,11.18,13.25,,47.59359,-54.27349
2018-11-09 01:10:00+00:00,300.0,298.0,11.01,13.31,,47.59359,-54.27349
2018-11-09 01:20:00+00:00,305.0,309.0,8.95,11.33,,47.59359,-54.27349
2018-11-09 01:30:00+00:00,298.0,304.0,9.28,13.31,,47.59359,-54.27349
2018-11-09 01:40:00+00:00,300.0,302.0,11.84,13.85,,47.59359,-54.27349
2018-11-09 01:50:00+00:00,303.0,300.0,11.77,14.45,,47.59359,-54.27349
2018-11-09 02:00:00+00:00,301.0,305.0,11.58,13.59,,47.59359,-54.27349
2018-11-09 02:10:00+00:00,296.0,297.0,9.53,12.55,,47.59359,-54.27349
2018-11-09 02:20:00+00:00,296.0,311.0,8.85,10.36,,47.59359,-54.27349
2018-11-09 02:30:00+00:00,292.0,288.0,6.94,8.39,,47.59359,-54.27349
2018-11-09 02:40:00+00:00,297.0,303.0,7.96,11.18,,47.59359,-54.27349
2018-11-09 02:50:00+00:00,303.0,309.0,9.28,10.5,,47.59359,-54.27349
2018-11-09 03:00:00+00:00,303.0,304.0,8.44,9.37,,47.59359,-54.27349
2018-11-09 03:10:00+00:00,304.0,304.0,7.27,8.58,,47.59359,-54.27349
2018-11-09 03:20:00+00:00,302.0,304.0,6.88,7.97,,47.59359,-54.27349
2018-11-09 03:30:00+00:00,306.0,309.0,6.44,7.35,,47.59359,-54.27349
2018-11-09 03:40:00+00:00,302.0,288.0,6.31,8.13,,47.59359,-54.27349
2018-11-09 03:50:00+00:00,293.0,299.0,6.58,7.66,,47.59359,-54.27349
2018-11-09 04:00:00+00:00,301.0,303.0,7.18,8.46,,47.59359,-54.27349
2018-11-09 04:10:00+00:00,296.0,295.0,7.28,8.02,,47.59359,-54.27349
2018-11-09 04:20:00+00:00,296.0,295.0,8.13,10.18,,47.59359,-54.27349
2018-11-09 04:30:00+00:00,297.0,304.0,7.33,8.93,,47.59359,-54.27349
2018-11-09 04:40:00+00:00,296.0,300.0,6.72,7.44,,47.59359,-54.27349
2018-11-09 04:50:00+00:00,281.0,279.0,6.11,7.16,,47.59359,-54.27349
2018-11-09 05:00:00+00:00,290.0,298.0,8.73,10.2,,47.59359,-54.27349
2018-11-09 05:10:00+00:00,294.0,293.0,8.22,9.23,,47.59359,-54.27349
2018-11-09 05:20:00+00:00,296.0,298.0,7.47,8.73,,47.59359,-54.27349
2018-11-09 05:30:00+00:00,299.0,297.0,6.74,7.94,,47.59359,-54.27349
2018-11-09 05:40:00+00:00,292.0,298.0,6.05,7.44,,47.59359,-54.27349
2018-11-09 05:50:00+00:00,295.0,301.0,6.75,7.78,,47.59359,-54.27349
2018-11-09 06:00:00+00:00,291.0,291.0,5.31,6.49,,47.59359,-54.27349
2018-11-09 06:10:00+00:00,289.0,289.0,5.65,6.73,,47.59359,-54.27349
2018-11-09 06:20:00+00:00,286.0,288.0,5.6,6.47,,47.59359,-54.27349
2018-11-09 06:30:00+00:00,295.0,286.0,6.62,8.08,,47.59359,-54.27349
2018-11-09 06:40:00+00:00,286.0,291.0,6.18,7.55,,47.59359,-54.27349
2018-11-09 06:50:00+00:00,283.0,283.0,7.16,10.48,,47.59359,-54.27349
2018-11-09 07:00:00+00:00,280.0,277.0,6.61,8.91,,47.59359,-54.27349
2018-11-09 07:10:00+00:00,275.0,279.0,6.49,7.83,,47.59359,-54.27349
2018-11-09 07:20:00+00:00,278.0,277.0,8.41,10.35,,47.59359,-54.27349
2018-11-09 07:30:00+00:00,288.0,297.0,8.15,10.34,,47.59359,-54.27349
2018-11-09 07:40:00+00:00,276.0,270.0,7.25,8.35,,47.59359,-54.27349
2018-11-09 07:50:00+00:00,279.0,281.0,7.45,8.89,,47.59359,-54.27349
2018-11-09 08:00:00+00:00,276.0,279.0,7.59,8.93,,47.59359,-54.27349
2018-11-09 08:10:00+00:00,278.0,279.0,7.68,9.18,,47.59359,-54.27349
2018-11-09 08:20:00+00:00,277.0,269.0,6.5,7.97,,47.59359,-54.27349
2018-11-09 08:30:00+00:00,257.0,249.0,5.2,6.6,,47.59359,-54.27349
2018-11-09 08:40:00+00:00,261.0,265.0,4.99,6.21,,47.59359,-54.27349
2018-11-09 08:50:00+00:00,273.0,278.0,4.14,5.15,,47.59359,-54.27349
2018-11-09 09:00:00+00:00,280.0,296.0,7.3,9.7,,47.59359,-54.27349
2018-11-09 09:10:00+00:00,278.0,280.0,7.58,8.98,,47.59359,-54.27349
2018-11-09 09:20:00+00:00,286.0,291.0,7.29,8.68,,47.59359,-54.27349
2018-11-09 09:30:00+00:00,267.0,266.0,6.68,8.09,,47.59359,-54.27349
2018-11-09 09:40:00+00:00,270.0,271.0,6.15,7.61,,47.59359,-54.27349
2018-11-09 09:50:00+00:00,270.0,261.0,6.4,8.22,,47.59359,-54.27349
2018-11-09 10:00:00+00:00,262.0,265.0,6.0,6.9,,47.59359,-54.27349
2018-11-09 10:10:00+00:00,270.0,269.0,6.82,7.49,,47.59359,-54.27349
2018-11-09 10:20:00+00:00,260.0,259.0,5.99,6.89,,47.59359,-54.27349
2018-11-09 10:30:00+00:00,262.0,264.0,5.9,7.07,,47.59359,-54.27349
2018-11-09 10:40:00+00:00,271.0,265.0,5.41,6.51,,47.59359,-54.27349
2018-11-09 10:50:00+00:00,270.0,272.0,5.02,6.08,,47.59359,-54.27349
2018-11-09 11:00:00+00:00,280.0,280.0,5.41,6.06,,47.59359,-54.27349
2018-11-09 11:10:00+00:00,275.0,274.0,5.94,6.54,,47.59359,-54.27349
2018-11-09 11:20:00+00:00,269.0,269.0,5.93,6.64,,47.59359,-54.27349
2018-11-09 11:30:00+00:00,265.0,256.0,6.62,7.54,,47.59359,-54.27349
2018-11-09 11:40:00+00:00,268.0,270.0,6.64,8.01,,47.59359,-54.27349
2018-11-09 11:50:00+00:00,280.0,275.0,6.18,7.32,,47.59359,-54.27349
2018-11-09 12:00:00+00:00,265.0,269.0,6.42,8.19,,47.59359,-54.27349
2018-11-09 12:10:00+00:00,283.0,278.0,5.71,6.7,,47.59359,-54.27349
2018-11-09 12:20:00+00:00,281.0,285.0,6.18,8.19,,47.59359,-54.27349
2018-11-09 12:30:00+00:00,294.0,302.0,7.79,10.0,,47.59359,-54.27349
2018-11-09 12:40:00+00:00,280.0,288.0,6.94,9.1,,47.59359,-54.27349
2018-11-09 12:50:00+00:00,295.0,297.0,7.38,9.18,,47.59359,-54.27349
2018-11-09 13:00:00+00:00,299.0,303.0,9.48,10.67,,47.59359,-54.27349
2018-11-09 13:10:00+00:00,288.0,292.0,10.21,11.8,,47.59359,-54.27349
2018-11-09 13:20:00+00:00,285.0,287.0,8.56,9.65,,47.59359,-54.27349
2018-11-09 13:30:00+00:00,285.0,281.0,8.33,11.25,,47.59359,-54.27349
2018-11-09 13:40:00+00:00,284.0,291.0,9.58,11.03,,47.59359,-54.27349
2018-11-09 13:50:00+00:00,295.0,302.0,11.09,12.53,,47.59359,-54.27349
2018-11-09 14:00:00+00:00,287.0,284.0,10.12,11.71,,47.59359,-54.27349
2018-11-09 14:10:00+00:00,279.0,278.0,9.93,11.42,,47.59359,-54.27349
2018-11-09 14:20:00+00:00,286.0,290.0,7.91,9.0,,47.59359,-54.27349
2018-11-09 14:30:00+00:00,286.0,283.0,7.43,9.77,,47.59359,-54.27349
2018-11-09 14:40:00+00:00,296.0,302.0,9.17,9.95,,47.59359,-54.27349
2018-11-09 14:50:00+00:00,288.0,294.0,10.49,12.07,,47.59359,-54.27349
2018-11-09 15:00:00+00:00,287.0,284.0,12.02,14.39,,47.59359,-54.27349
2018-11-09 15:10:00+00:00,297.0,300.0,8.51,10.1,,47.59359,-54.27349
2018-11-09 15:20:00+00:00,293.0,288.0,8.87,9.99,,47.59359,-54.27349
2018-11-09 15:30:00+00:00,301.0,297.0,11.33,13.11,,47.59359,-54.27349
2018-11-09 15:40:00+00:00,286.0,273.0,9.63,11.39,,47.59359,-54.27349
2018-11-09 15:50:00+00:00,298.0,299.0,8.4,9.7,,47.59359,-54.27349
2018-11-09 16:00:00+00:00,300.0,304.0,8.58,10.03,,47.59359,-54.27349
2018-11-09 16:10:00+00:00,293.0,297.0,12.45,15.45,,47.59359,-54.27349
2018-11-09 16:20:00+00:00,294.0,283.0,10.74,13.27,,47.59359,-54.27349
2018-11-09 16:30:00+00:00,299.0,301.0,12.4,13.88,,47.59359,-54.27349
2018-11-09 16:40:00+00:00,302.0,294.0,9.34,11.26,,47.59359,-54.27349
2018-11-09 16:50:00+00:00,295.0,296.0,9.51,10.91,,47.59359,-54.27349
2018-11-09 17:00:00+00:00,297.0,299.0,7.0,7.84,,47.59359,-54.27349
2018-11-09 17:10:00+00:00,294.0,299.0,9.79,11.07,,47.59359,-54.27349
2018-11-09 17:20:00+00:00,295.0,292.0,9.46,11.27,,47.59359,-54.27349
2018-11-09 17:30:00+00:00,281.0,286.0,10.66,12.18,,47.59359,-54.27349
2018-11-09 17:40:00+00:00,289.0,283.0,11.32,12.79,,47.59359,-54.27349
2018-11-09 17:50:00+00:00,285.0,284.0,9.42,11.0,,47.59359,-54.27349
2018-11-09 18:00:00+00:00,292.0,290.0,10.09,11.66,,47.59359,-54.27349
2018-11-09 18:10:00+00:00,299.0,300.0,12.28,13.68,,47.59359,-54.27349
2018-11-09 18:20:00+00:00,308.0,316.0,7.06,8.68,,47.59359,-54.27349
2018-11-09 18:30:00+00:00,296.0,306.0,8.14,10.11,,47.59359,-54.27349
2018-11-09 18:40:00+00:00,297.0,298.0,8.76,10.28,,47.59359,-54.27349
2018-11-09 18:50:00+00:00,293.0,290.0,7.93,9.4,,47.59359,-54.27349
2018-11-09 19:00:00+00:00,304.0,307.0,7.98,8.8,,47.59359,-54.27349
2018-11-09 19:10:00+00:00,304.0,307.0,8.52,9.32,,47.59359,-54.27349
2018-11-09 19:20:00+00:00,304.0,308.0,6.77,7.66,,47.59359,-54.27349
2018-11-09 19:30:00+00:00,308.0,315.0,6.88,7.87,,47.59359,-54.27349
2018-11-09 19:40:00+00:00,314.0,323.0,8.59,10.45,,47.59359,-54.27349
2018-11-09 19:50:00+00:00,309.0,308.0,9.72,10.64,,47.59359,-54.27349
2018-11-09 20:00:00+00:00,310.0,318.0,11.39,12.92,,47.59359,-54.27349
2018-11-09 20:10:00+00:00,306.0,304.0,8.69,10.44,,47.59359,-54.27349
2018-11-09 20:20:00+00:00,305.0,302.0,7.91,9.52,,47.59359,-54.27349
2018-11-09 20:30:00+00:00,305.0,309.0,7.19,8.75,,47.59359,-54.27349
2018-11-09 20:40:00+00:00,316.0,311.0,11.08,15.09,,47.59359,-54.27349
2018-11-09 20:50:00+00:00,316.0,320.0,8.82,10.02,,47.59359,-54.27349
2018-11-09 21:00:00+00:00,305.0,308.0,6.86,7.59,,47.59359,-54.27349
2018-11-09 21:10:00+00:00,293.0,298.0,6.92,7.71,,47.59359,-54.27349
2018-11-09 21:20:00+00:00,302.0,303.0,8.09,9.77,,47.59359,-54.27349
2018-11-09 21:30:00+00:00,302.0,295.0,7.94,9.42,,47.59359,-54.27349
2018-11-09 21:40:00+00:00,301.0,304.0,8.77,10.27,,47.59359,-54.27349
2018-11-09 21:50:00+00:00,298.0,299.0,8.94,10.41,,47.59359,-54.27349
2018-11-09 22:00:00+00:00,300.0,302.0,8.61,10.26,,47.59359,-54.27349
2018-11-09 22:10:00+00:00,299.0,301.0,9.33,10.53,,47.59359,-54.27349
2018-11-09 22:20:00+00:00,304.0,308.0,8.17,9.52,,47.59359,-54.27349
2018-11-09 22:30:00+00:00,307.0,310.0,8.97,10.09,,47.59359,-54.27349
2018-11-09 22:40:00+00:00,308.0,304.0,8.18,10.38,,47.59359,-54.27349
2018-11-09 22:50:00+00:00,310.0,311.0,8.33,10.38,,47.59359,-54.27349
2018-11-09 23:00:00+00:00,320.0,321.0,8.86,10.23,,47.59359,-54.27349
2018-11-09 23:10:00+00:00,316.0,318.0,8.07,8.82,,47.59359,-54.27349
2018-11-09 23:20:00+00:00,317.0,317.0,8.68,9.75,,47.59359,-54.27349
2018-11-09 23:30:00+00:00,311.0,307.0,10.21,11.01,,47.59359,-54.27349
2018-11-09 23:40:00+00:00,310.0,304.0,8.79,10.57,,47.59359,-54.27349
2018-11-09 23:50:00+00:00,313.0,312.0,8.68,9.81,,47.59359,-54.27349
